AVA3942 SKPE-SKBO

Flight info

Callsign AVA3942
Flight time 0h 24m
Altitude 19000
Route TOLIM1D TOLIM TOLIM4E
Aircraft A320/M-SDE3FGHIRWY/LB1

Departure

Time 2026-05-05 00:25
Airport Matecaña International Airport (SKPE)

Arrival

Time 2026-05-05 00:49
Airport El Dorado International Airport (SKBO)
Time Latitude Longitude Altitude Speed Heading
2026-05-05 00:08 4.81490 -75.73750 4399 ft 0 kts 342°
2026-05-05 00:14 4.81479 -75.73746 4426 ft 4 kts 356°
2026-05-05 00:14 4.81461 -75.73753 4429 ft 4 kts 68°
2026-05-05 00:15 4.81456 -75.73770 4426 ft 1 kts 76°
2026-05-05 00:15 4.81455 -75.73773 4426 ft 1 kts 76°
2026-05-05 00:19 4.81454 -75.73768 4426 ft 2 kts 94°
2026-05-05 00:19 4.81447 -75.73733 4427 ft 8 kts 88°
2026-05-05 00:19 4.81464 -75.73671 4427 ft 9 kts 73°
2026-05-05 00:20 4.81479 -75.73620 4427 ft 7 kts 71°
2026-05-05 00:20 4.81493 -75.73578 4429 ft 6 kts 72°
2026-05-05 00:20 4.81509 -75.73531 4428 ft 8 kts 72°
2026-05-05 00:20 4.81501 -75.73488 4431 ft 0 kts 125°
2026-05-05 00:21 4.81501 -75.73487 4431 ft 1 kts 126°
2026-05-05 00:22 4.81454 -75.73461 4429 ft 13 kts 137°
2026-05-05 00:22 4.81459 -75.73369 4429 ft 15 kts 72°
2026-05-05 00:22 4.81495 -75.73254 4428 ft 18 kts 72°
2026-05-05 00:22 4.81535 -75.73129 4428 ft 19 kts 71°
2026-05-05 00:23 4.81576 -75.73057 4428 ft 9 kts 101°
2026-05-05 00:23 4.81559 -75.73060 4428 ft 4 kts 234°
2026-05-05 00:23 4.81548 -75.73090 4428 ft 4 kts 252°
2026-05-05 00:23 4.81542 -75.73110 4428 ft 2 kts 252°
2026-05-05 00:24 4.81540 -75.73115 4428 ft 0 kts 252°
2026-05-05 00:24 4.81512 -75.73202 4430 ft 51 kts 252°
2026-05-05 00:24 4.81308 -75.73832 4426 ft 136 kts 252°
2026-05-05 00:24 4.80958 -75.74923 4716 ft 176 kts 252°
2026-05-05 00:25 4.80585 -75.76101 5619 ft 179 kts 251°
2026-05-05 00:25 4.80330 -75.76883 6214 ft 175 kts 251°
2026-05-05 00:25 4.79801 -75.78505 6691 ft 196 kts 251°
2026-05-05 00:25 4.79361 -75.79858 6993 ft 210 kts 252°
2026-05-05 00:26 4.79059 -75.80787 7308 ft 213 kts 252°
2026-05-05 00:26 4.78324 -75.82069 7809 ft 215 kts 218°
2026-05-05 00:26 4.76408 -75.82573 8178 ft 233 kts 171°
2026-05-05 00:26 4.75308 -75.82333 8316 ft 244 kts 162°
2026-05-05 00:27 4.73084 -75.81528 8832 ft 265 kts 157°
2026-05-05 00:27 4.71358 -75.80841 9523 ft 269 kts 157°
2026-05-05 00:27 4.69583 -75.80227 10204 ft 272 kts 162°
2026-05-05 00:27 4.68344 -75.79899 10640 ft 274 kts 165°
2026-05-05 00:28 4.66472 -75.79487 11283 ft 277 kts 167°
2026-05-05 00:28 4.64595 -75.79126 11908 ft 279 kts 168°
2026-05-05 00:28 4.62669 -75.78818 12537 ft 282 kts 170°
2026-05-05 00:28 4.60690 -75.78551 13193 ft 285 kts 170°
2026-05-05 00:29 4.58741 -75.78302 13813 ft 287 kts 169°
2026-05-05 00:29 4.56751 -75.78046 14379 ft 290 kts 169°
2026-05-05 00:29 4.54741 -75.77779 14936 ft 292 kts 169°
2026-05-05 00:29 4.52722 -75.77500 15472 ft 294 kts 167°
2026-05-05 00:30 4.50704 -75.76981 15750 ft 308 kts 156°
2026-05-05 00:30 4.48722 -75.76020 15870 ft 326 kts 145°
2026-05-05 00:30 4.46875 -75.74601 15996 ft 343 kts 134°
2026-05-05 00:30 4.45301 -75.72744 16122 ft 358 kts 122°
2026-05-05 00:31 4.44125 -75.70489 16250 ft 373 kts 109°
2026-05-05 00:31 4.43326 -75.67980 16547 ft 382 kts 106°
2026-05-05 00:31 4.42534 -75.65425 17019 ft 387 kts 107°
2026-05-05 00:31 4.41727 -75.62849 17536 ft 389 kts 107°
2026-05-05 00:32 4.40911 -75.60256 18039 ft 392 kts 107°
2026-05-05 00:32 4.40084 -75.57631 18484 ft 395 kts 107°
2026-05-05 00:32 4.39331 -75.54975 18913 ft 398 kts 101°
2026-05-05 00:32 4.38977 -75.52228 19075 ft 398 kts 92°
2026-05-05 00:33 4.39068 -75.49422 19129 ft 410 kts 83°
2026-05-05 00:33 4.39640 -75.46581 19137 ft 418 kts 73°
2026-05-05 00:33 4.40779 -75.43860 19129 ft 431 kts 62°
2026-05-05 00:33 4.42237 -75.41232 19113 ft 443 kts 62°
2026-05-05 00:34 4.43764 -75.38509 19118 ft 453 kts 62°
2026-05-05 00:34 4.45324 -75.35729 19106 ft 462 kts 62°
2026-05-05 00:34 4.46899 -75.32915 19371 ft 458 kts 62°
2026-05-05 00:34 4.48452 -75.30145 20087 ft 443 kts 62°
2026-05-05 00:35 4.49928 -75.27508 20772 ft 436 kts 62°
2026-05-05 00:35 4.51424 -75.24824 20895 ft 444 kts 62°
2026-05-05 00:35 4.52935 -75.22102 20975 ft 448 kts 62°
2026-05-05 00:35 4.54440 -75.19385 20779 ft 445 kts 62°
2026-05-05 00:36 4.55941 -75.16676 20533 ft 443 kts 62°
2026-05-05 00:36 4.57437 -75.13976 20309 ft 442 kts 62°
2026-05-05 00:36 4.58924 -75.11296 20114 ft 440 kts 62°
2026-05-05 00:36 4.60411 -75.08618 19901 ft 439 kts 62°
2026-05-05 00:37 4.61891 -75.05957 19767 ft 435 kts 62°
2026-05-05 00:37 4.63373 -75.03294 19326 ft 441 kts 62°
2026-05-05 00:37 4.64876 -75.00592 19125 ft 449 kts 62°
2026-05-05 00:37 4.66415 -74.97823 19134 ft 459 kts 62°
2026-05-05 00:38 4.67964 -74.95033 19108 ft 454 kts 62°
2026-05-05 00:38 4.69486 -74.92294 19082 ft 443 kts 62°
2026-05-05 00:38 4.70937 -74.89679 18966 ft 413 kts 62°
2026-05-05 00:38 4.72279 -74.87257 18798 ft 383 kts 62°
2026-05-05 00:39 4.73527 -74.85003 18692 ft 355 kts 62°
2026-05-05 00:39 4.74692 -74.82917 18520 ft 332 kts 60°
2026-05-05 00:39 4.76034 -74.81069 17672 ft 331 kts 55°
2026-05-05 00:39 4.77223 -74.79049 16402 ft 342 kts 66°
2026-05-05 00:40 4.78135 -74.76797 15288 ft 363 kts 71°
2026-05-05 00:40 4.78949 -74.74320 14951 ft 380 kts 73°
2026-05-05 00:40 4.79768 -74.71759 14713 ft 393 kts 73°
2026-05-05 00:40 4.80642 -74.69155 14493 ft 395 kts 71°
2026-05-05 00:41 4.81571 -74.66568 14266 ft 394 kts 70°
2026-05-05 00:41 4.82538 -74.64018 14066 ft 386 kts 70°
2026-05-05 00:41 4.83505 -74.61548 13822 ft 374 kts 69°
2026-05-05 00:41 4.84452 -74.59157 13568 ft 363 kts 69°
2026-05-05 00:42 4.85358 -74.56866 13298 ft 342 kts 69°
2026-05-05 00:42 4.86198 -74.54721 13068 ft 319 kts 70°
2026-05-05 00:42 4.86978 -74.52719 12941 ft 298 kts 70°
2026-05-05 00:42 4.87708 -74.50844 12813 ft 282 kts 70°
2026-05-05 00:43 4.88407 -74.49033 12841 ft 277 kts 70°
2026-05-05 00:43 4.89103 -74.47225 12850 ft 277 kts 70°
2026-05-05 00:43 4.89744 -74.45431 12837 ft 267 kts 78°
2026-05-05 00:43 4.89927 -74.43634 12845 ft 254 kts 94°
2026-05-05 00:44 4.89605 -74.41935 12858 ft 251 kts 110°
2026-05-05 00:44 4.88796 -74.40364 12871 ft 251 kts 126°
2026-05-05 00:44 4.87740 -74.38968 12883 ft 251 kts 126°
2026-05-05 00:44 4.86700 -74.37595 12893 ft 251 kts 126°
2026-05-05 00:45 4.85664 -74.36227 12783 ft 243 kts 126°
2026-05-05 00:45 4.84643 -74.34877 12543 ft 242 kts 126°
2026-05-05 00:45 4.83623 -74.33529 12250 ft 243 kts 126°
2026-05-05 00:45 4.82601 -74.32178 11955 ft 244 kts 126°
2026-05-05 00:46 4.81574 -74.30821 11649 ft 245 kts 126°
2026-05-05 00:46 4.80539 -74.29453 11351 ft 246 kts 126°
2026-05-05 00:46 4.79505 -74.28087 11053 ft 247 kts 126°
2026-05-05 00:46 4.78466 -74.26715 10757 ft 247 kts 126°
2026-05-05 00:47 4.77425 -74.25339 10469 ft 247 kts 126°
2026-05-05 00:47 4.76403 -74.23990 10164 ft 238 kts 127°
2026-05-05 00:47 4.75448 -74.22729 9871 ft 215 kts 126°
2026-05-05 00:47 4.74589 -74.21595 9593 ft 195 kts 126°
2026-05-05 00:48 4.73799 -74.20551 9320 ft 181 kts 126°
2026-05-05 00:48 4.73070 -74.19588 9081 ft 166 kts 124°
2026-05-05 00:48 4.72388 -74.18688 8846 ft 160 kts 124°
2026-05-05 00:48 4.71720 -74.17805 8627 ft 156 kts 124°
2026-05-05 00:49 4.71062 -74.16934 8453 ft 156 kts 126°
2026-05-05 00:49 4.70432 -74.16087 8373 ft 138 kts 124°
2026-05-05 00:49 4.69965 -74.15470 8374 ft 75 kts 127°
2026-05-05 00:49 4.69774 -74.15221 8372 ft 36 kts 120°
2026-05-05 00:50 4.69719 -74.15021 8373 ft 20 kts 94°
2026-05-05 00:50 4.69732 -74.14950 8373 ft 0 kts 62°
2026-05-05 00:50 4.69733 -74.14949 8373 ft 0 kts 62°
2026-05-05 00:51 4.69736 -74.14944 8373 ft 4 kts 58°
2026-05-05 00:51 4.69782 -74.14893 8373 ft 15 kts 43°
2026-05-05 00:51 4.69878 -74.14828 8373 ft 18 kts 36°
2026-05-05 00:51 4.69975 -74.14755 8372 ft 18 kts 37°
2026-05-05 00:52 4.70073 -74.14680 8370 ft 17 kts 38°
2026-05-05 00:52 4.70102 -74.14625 8372 ft 7 kts 110°
2026-05-05 00:52 4.70074 -74.14583 8373 ft 8 kts 126°
2026-05-05 00:52 4.70040 -74.14537 8371 ft 9 kts 127°
2026-05-05 00:53 4.70002 -74.14487 8373 ft 9 kts 128°
2026-05-05 00:53 4.69959 -74.14433 8372 ft 10 kts 128°
2026-05-05 00:53 4.69950 -74.14376 8370 ft 9 kts 52°
2026-05-05 00:53 4.69991 -74.14343 8373 ft 2 kts 38°
2026-05-05 00:54 4.70000 -74.14336 8373 ft 0 kts 37°